Time,TemperatureF,DewpointF,PressureIn,WindDirection,WindDirectionDegrees,WindSpeedMPH,WindSpeedGustMPH,Humidity,HourlyPrecipIn,Conditions,Clouds,dailyrainin,SoftwareType,DateUTC
2013-03-15 00:10:00,27.5,11.0,29.90,NNW,330,8.0,-999.0,50,-99.99,,,0.00,weatherlink.com 1.10,2013-03-15 04:10:00,
2013-03-15 00:25:00,27.6,11.0,29.90,NNE,28,4.0,-999.0,49,-99.99,,,0.00,weatherlink.com 1.10,2013-03-15 04:25:00,
2013-03-15 00:40:00,27.4,11.0,29.91,NNE,22,8.0,-999.0,50,-99.99,,,0.00,weatherlink.com 1.10,2013-03-15 04:40:00,
2013-03-15 00:55:00,27.2,11.0,29.91,NE,39,19.0,-999.0,51,-99.99,,,0.00,weatherlink.com 1.10,2013-03-15 04:55:00,
2013-03-15 01:25:00,27.1,11.0,29.90,North,354,10.0,-999.0,50,-99.99,,,0.00,weatherlink.com 1.10,2013-03-15 05:25:00,
2013-03-15 01:55:00,26.9,10.0,29.91,NE,54,6.0,-999.0,50,-99.99,,,0.00,weatherlink.com 1.10,2013-03-15 05:55:00,
2013-03-15 02:10:00,26.9,9.0,29.91,NW,306,13.0,-999.0,48,-99.99,,,0.00,weatherlink.com 1.10,2013-03-15 06:10:00,
2013-03-15 02:25:00,26.9,9.0,29.91,ENE,61,10.0,-999.0,48,-99.99,,,0.00,weatherlink.com 1.10,2013-03-15 06:25:00,
2013-03-15 02:40:00,26.9,9.0,29.91,NNW,335,11.0,-999.0,47,-99.99,,,0.00,weatherlink.com 1.10,2013-03-15 06:40:00,
2013-03-15 02:55:00,26.7,9.0,29.91,NW,315,3.0,-999.0,48,-99.99,,,0.00,weatherlink.com 1.10,2013-03-15 06:55:00,
2013-03-15 03:10:00,26.3,9.0,29.91,North,354,5.0,-999.0,49,-99.99,,,0.00,weatherlink.com 1.10,2013-03-15 07:10:00,
2013-03-15 03:25:00,26.2,9.0,29.91,NNE,33,8.0,-999.0,49,-99.99,,,0.00,weatherlink.com 1.10,2013-03-15 07:25:00,
2013-03-15 03:40:00,26.0,10.0,29.91,NW,320,7.0,-999.0,51,-99.99,,,0.00,weatherlink.com 1.10,2013-03-15 07:40:00,
2013-03-15 03:55:00,25.7,10.0,29.91,NE,37,6.0,-999.0,51,-99.99,,,0.00,weatherlink.com 1.10,2013-03-15 07:55:00,
2013-03-15 04:10:00,25.6,10.0,29.90,NW,306,11.0,-999.0,51,-99.99,,,0.00,weatherlink.com 1.10,2013-03-15 08:10:00,
2013-03-15 04:25:00,25.3,10.0,29.91,NNE,31,10.0,-999.0,52,-99.99,,,0.00,weatherlink.com 1.10,2013-03-15 08:25:00,
2013-03-15 04:40:00,25.2,10.0,29.91,NNW,343,1.0,-999.0,53,-99.99,,,0.00,weatherlink.com 1.10,2013-03-15 08:40:00,
2013-03-15 04:55:00,24.9,11.0,29.90,NNW,339,14.0,-999.0,55,-99.99,,,0.00,weatherlink.com 1.10,2013-03-15 08:55:00,
2013-03-15 05:10:00,24.7,11.0,29.91,NW,324,8.0,-999.0,56,-99.99,,,0.00,weatherlink.com 1.10,2013-03-15 09:10:00,
2013-03-15 05:25:00,24.3,11.0,29.91,NNW,341,2.0,-999.0,57,-99.99,,,0.00,weatherlink.com 1.10,2013-03-15 09:25:00,
2013-03-15 05:40:00,23.9,11.0,29.92,NNW,328,5.0,-999.0,59,-99.99,,,0.00,weatherlink.com 1.10,2013-03-15 09:40:00,
2013-03-15 05:55:00,23.7,11.0,29.92,NNE,31,3.0,-999.0,59,-99.99,,,0.00,weatherlink.com 1.10,2013-03-15 09:55:00,
2013-03-15 06:10:00,23.4,11.0,29.93,NNW,346,2.0,-999.0,59,-99.99,,,0.00,weatherlink.com 1.10,2013-03-15 10:10:00,
2013-03-15 06:25:00,23.3,11.0,29.93,NW,321,7.0,-999.0,60,-99.99,,,0.00,weatherlink.com 1.10,2013-03-15 10:25:00,
2013-03-15 06:40:00,23.2,11.0,29.93,NW,322,5.0,-999.0,60,-99.99,,,0.00,weatherlink.com 1.10,2013-03-15 10:40:00,
2013-03-15 06:55:00,22.9,11.0,29.93,NW,310,5.0,-999.0,61,-99.99,,,0.00,weatherlink.com 1.10,2013-03-15 10:55:00,
2013-03-15 07:10:00,22.7,11.0,29.94,NNW,329,1.0,-999.0,62,-99.99,,,0.00,weatherlink.com 1.10,2013-03-15 11:10:00,
2013-03-15 07:25:00,22.6,11.0,29.93,NNW,344,2.0,-999.0,62,-99.99,,,0.00,weatherlink.com 1.10,2013-03-15 11:25:00,
2013-03-15 07:40:00,22.5,11.0,29.93,NW,322,1.0,-999.0,62,-99.99,,,0.00,weatherlink.com 1.10,2013-03-15 11:40:00,
2013-03-15 07:55:00,22.6,12.0,29.93,NW,314,1.0,-999.0,63,-99.99,,,0.00,weatherlink.com 1.10,2013-03-15 11:55:00,
2013-03-15 08:10:00,22.7,12.0,29.93,WNW,301,3.0,-999.0,63,-99.99,,,0.00,weatherlink.com 1.10,2013-03-15 12:10:00,
2013-03-15 08:25:00,23.0,12.0,29.93,NW,305,2.0,-999.0,63,-99.99,,,0.00,weatherlink.com 1.10,2013-03-15 12:25:00,
2013-03-15 08:40:00,23.4,12.0,29.93,WSW,253,0.0,-999.0,61,-99.99,,,0.00,weatherlink.com 1.10,2013-03-15 12:40:00,
2013-03-15 08:55:00,23.9,12.0,29.93,NW,305,7.0,-999.0,61,-99.99,,,0.00,weatherlink.com 1.10,2013-03-15 12:55:00,
2013-03-15 09:10:00,24.6,12.0,29.93,WSW,256,0.0,-999.0,60,-99.99,,,0.00,weatherlink.com 1.10,2013-03-15 13:10:00,
2013-03-15 09:25:00,25.3,12.0,29.93,WNW,302,0.0,-999.0,58,-99.99,,,0.00,weatherlink.com 1.10,2013-03-15 13:25:00,
2013-03-15 09:40:00,25.9,12.0,29.92,WNW,287,0.0,-999.0,57,-99.99,,,0.00,weatherlink.com 1.10,2013-03-15 13:40:00,
2013-03-15 09:55:00,27.4,13.0,29.92,WSW,237,0.0,-999.0,55,-99.99,,,0.00,weatherlink.com 1.10,2013-03-15 13:55:00,
2013-03-15 10:10:00,28.2,13.0,29.92,NW,316,0.0,-999.0,53,-99.99,,,0.00,weatherlink.com 1.10,2013-03-15 14:10:00,
2013-03-15 10:25:00,29.9,15.0,29.91,West,272,1.0,-999.0,53,-99.99,,,0.00,weatherlink.com 1.10,2013-03-15 14:25:00,
2013-03-15 10:40:00,31.8,14.0,29.89,NE,45,3.0,-999.0,48,-99.99,,,0.00,weatherlink.com 1.10,2013-03-15 14:40:00,
2013-03-15 10:55:00,33.7,14.0,29.89,West,274,0.0,-999.0,45,-99.99,,,0.00,weatherlink.com 1.10,2013-03-15 14:55:00,
2013-03-15 11:10:00,33.2,14.0,29.88,WSW,245,1.0,-999.0,45,-99.99,,,0.00,weatherlink.com 1.10,2013-03-15 15:10:00,
2013-03-15 11:25:00,35.2,15.0,29.87,SW,220,1.0,-999.0,43,-99.99,,,0.00,weatherlink.com 1.10,2013-03-15 15:25:00,
2013-03-15 11:40:00,35.0,14.0,29.86,SW,222,7.0,-999.0,42,-99.99,,,0.00,weatherlink.com 1.10,2013-03-15 15:40:00,
2013-03-15 11:55:00,36.9,15.0,29.85,SW,224,9.0,-999.0,40,-99.99,,,0.00,weatherlink.com 1.10,2013-03-15 15:55:00,
2013-03-15 12:11:00,36.4,12.0,29.84,NNE,25,0.0,-999.0,37,-99.99,,,0.00,weatherlink.com 1.10,2013-03-15 16:11:00,
2013-03-15 12:25:00,37.0,13.0,29.83,SW,226,0.0,-999.0,37,-99.99,,,0.00,weatherlink.com 1.10,2013-03-15 16:25:00,
2013-03-15 12:40:00,38.2,14.0,29.82,NNW,330,0.0,-999.0,37,-99.99,,,0.00,weatherlink.com 1.10,2013-03-15 16:40:00,
2013-03-15 12:55:00,39.8,16.0,29.81,WSW,237,0.0,-999.0,38,-99.99,,,0.00,weatherlink.com 1.10,2013-03-15 16:55:00,
2013-03-15 13:10:00,40.6,15.0,29.81,NNW,339,0.0,-999.0,35,-99.99,,,0.00,weatherlink.com 1.10,2013-03-15 17:10:00,
2013-03-15 13:25:00,40.0,14.0,29.80,WSW,251,4.0,-999.0,35,-99.99,,,0.00,weatherlink.com 1.10,2013-03-15 17:25:00,
2013-03-15 13:40:00,40.2,18.0,29.79,WSW,249,0.0,-999.0,40,-99.99,,,0.00,weatherlink.com 1.10,2013-03-15 17:40:00,
2013-03-15 13:55:00,40.3,16.0,29.78,WSW,237,0.0,-999.0,38,-99.99,,,0.00,weatherlink.com 1.10,2013-03-15 17:55:00,
2013-03-15 14:10:00,39.9,17.0,29.77,West,272,1.0,-999.0,40,-99.99,,,0.00,weatherlink.com 1.10,2013-03-15 18:10:00,
2013-03-15 14:25:00,41.1,18.0,29.76,WSW,253,6.0,-999.0,40,-99.99,,,0.00,weatherlink.com 1.10,2013-03-15 18:25:00,
2013-03-15 14:40:00,41.2,20.0,29.76,NNW,340,0.0,-999.0,42,-99.99,,,0.00,weatherlink.com 1.10,2013-03-15 18:40:00,
2013-03-15 14:55:00,39.6,19.0,29.75,SW,230,1.0,-999.0,43,-99.99,,,0.00,weatherlink.com 1.10,2013-03-15 18:55:00,
2013-03-15 15:10:00,38.8,21.0,29.74,SSW,210,0.0,-999.0,50,-99.99,,,0.00,weatherlink.com 1.10,2013-03-15 19:10:00,
2013-03-15 15:25:00,38.2,22.0,29.73,WSW,237,1.0,-999.0,53,-99.99,,,0.00,weatherlink.com 1.10,2013-03-15 19:25:00,
2013-03-15 15:40:00,36.9,24.0,29.73,WSW,249,4.0,-999.0,61,-99.99,,,0.00,weatherlink.com 1.10,2013-03-15 19:40:00,
2013-03-15 15:55:00,36.3,24.0,29.73,WSW,258,0.0,-999.0,61,-99.99,,,0.00,weatherlink.com 1.10,2013-03-15 19:55:00,
2013-03-15 16:10:00,36.6,25.0,29.73,WSW,249,0.0,-999.0,62,-99.99,,,0.00,weatherlink.com 1.10,2013-03-15 20:10:00,
2013-03-15 16:25:00,36.4,25.0,29.73,WSW,245,0.0,-999.0,63,-99.99,,,0.00,weatherlink.com 1.10,2013-03-15 20:25:00,
2013-03-15 16:40:00,36.2,26.0,29.73,WSW,237,0.0,-999.0,66,-99.99,,,0.00,weatherlink.com 1.10,2013-03-15 20:40:00,
2013-03-15 16:55:00,36.1,26.0,29.72,NW,313,0.0,-999.0,66,-99.99,,,0.00,weatherlink.com 1.10,2013-03-15 20:55:00,
2013-03-15 17:10:00,36.5,25.0,29.72,NW,313,2.0,-999.0,64,-99.99,,,0.00,weatherlink.com 1.10,2013-03-15 21:10:00,
2013-03-15 17:25:00,36.8,26.0,29.72,WSW,255,7.0,-999.0,65,-99.99,,,0.00,weatherlink.com 1.10,2013-03-15 21:25:00,
2013-03-15 17:40:00,36.7,26.0,29.71,NNW,339,5.0,-999.0,65,-99.99,,,0.00,weatherlink.com 1.10,2013-03-15 21:40:00,
2013-03-15 17:55:00,36.7,26.0,29.72,West,280,9.0,-999.0,66,-99.99,,,0.00,weatherlink.com 1.10,2013-03-15 21:55:00,
2013-03-15 18:10:00,36.6,27.0,29.71,West,259,3.0,-999.0,67,-99.99,,,0.00,weatherlink.com 1.10,2013-03-15 22:10:00,
2013-03-15 18:25:00,36.1,27.0,29.72,SW,216,3.0,-999.0,70,-99.99,,,0.00,weatherlink.com 1.10,2013-03-15 22:25:00,
2013-03-15 18:40:00,35.7,27.0,29.73,WSW,245,0.0,-999.0,72,-99.99,,,0.00,weatherlink.com 1.10,2013-03-15 22:40:00,
2013-03-15 18:55:00,35.2,28.0,29.73,WSW,247,4.0,-999.0,75,-99.99,,,0.00,weatherlink.com 1.10,2013-03-15 22:55:00,
2013-03-15 19:10:00,35.1,28.0,29.73,West,266,0.0,-999.0,75,-99.99,,,0.00,weatherlink.com 1.10,2013-03-15 23:10:00,
2013-03-15 19:25:00,35.2,28.0,29.73,West,268,0.0,-999.0,75,-99.99,,,0.00,weatherlink.com 1.10,2013-03-15 23:25:00,
2013-03-15 19:40:00,35.1,28.0,29.73,West,266,0.0,-999.0,75,-99.99,,,0.00,weatherlink.com 1.10,2013-03-15 23:40:00,
2013-03-15 19:55:00,35.2,28.0,29.73,WNW,301,0.0,-999.0,76,-99.99,,,0.00,weatherlink.com 1.10,2013-03-15 23:55:00,
2013-03-15 20:10:00,35.1,28.0,29.73,WSW,251,2.0,-999.0,76,-99.99,,,0.00,weatherlink.com 1.10,2013-03-16 00:10:00,
2013-03-15 20:25:00,35.0,28.0,29.73,WSW,251,4.0,-999.0,76,-99.99,,,0.00,weatherlink.com 1.10,2013-03-16 00:25:00,
2013-03-15 20:40:00,34.7,28.0,29.73,WSW,250,6.0,-999.0,77,-99.99,,,0.00,weatherlink.com 1.10,2013-03-16 00:40:00,
2013-03-15 20:55:00,34.4,28.0,29.73,WSW,251,5.0,-999.0,78,-99.99,,,0.00,weatherlink.com 1.10,2013-03-16 00:55:00,
2013-03-15 21:10:00,34.4,28.0,29.73,NW,308,2.0,-999.0,78,-99.99,,,0.00,weatherlink.com 1.10,2013-03-16 01:10:00,
2013-03-15 21:25:00,34.4,28.0,29.74,NW,324,0.0,-999.0,78,-99.99,,,0.00,weatherlink.com 1.10,2013-03-16 01:25:00,
2013-03-15 21:40:00,34.4,28.0,29.74,NW,314,3.0,-999.0,77,-99.99,,,0.00,weatherlink.com 1.10,2013-03-16 01:40:00,
2013-03-15 21:55:00,34.1,27.0,29.74,WNW,285,2.0,-999.0,76,-99.99,,,0.00,weatherlink.com 1.10,2013-03-16 01:55:00,
2013-03-15 22:10:00,34.0,27.0,29.74,NW,315,3.0,-999.0,75,-99.99,,,0.00,weatherlink.com 1.10,2013-03-16 02:10:00,
2013-03-15 22:25:00,34.0,27.0,29.74,NW,318,1.0,-999.0,74,-99.99,,,0.00,weatherlink.com 1.10,2013-03-16 02:25:00,
2013-03-15 22:40:00,34.1,26.0,29.73,NW,305,2.0,-999.0,71,-99.99,,,0.00,weatherlink.com 1.10,2013-03-16 02:40:00,
2013-03-15 22:55:00,34.3,25.0,29.73,WSW,239,4.0,-999.0,68,-99.99,,,0.00,weatherlink.com 1.10,2013-03-16 02:55:00,
2013-03-15 23:10:00,34.4,24.0,29.74,WSW,238,2.0,-999.0,67,-99.99,,,0.00,weatherlink.com 1.10,2013-03-16 03:10:00,
2013-03-15 23:25:00,34.3,24.0,29.74,WNW,284,0.0,-999.0,66,-99.99,,,0.00,weatherlink.com 1.10,2013-03-16 03:25:00,
2013-03-15 23:40:00,34.1,24.0,29.74,West,281,0.0,-999.0,66,-99.99,,,0.00,weatherlink.com 1.10,2013-03-16 03:40:00,
2013-03-15 23:55:00,33.6,24.0,29.75,West,259,3.0,-999.0,67,-99.99,,,0.00,weatherlink.com 1.10,2013-03-16 03:55:00,